sat.trackr.live / text

‹ back to catalog

YAOGAN-19

NORAD 39410 · 2013-065A

PAYLOAD ACTIVE UNKNOWN

§ Identity

Operator
Country
PRC
Launch date
2013-11-20
Launch site
TAISC
Launch vehicle
Mass (kg)
RCS (m²)
3.16

External: N2YO · Heavens-Above · Gunter

§ Orbital elements

Epoch: 2026-09-14T23:27:29.761056Z

Period
109.46 min
Inclination
100.1235°
Eccentricity
0.0008664
Mean motion
13.15587791 rev/d
Perigee alt
1,195.1 km
Apogee alt
1,208.2 km
Semi-major
7,579.8 km
B*
1.2302e-3
RAAN
230.4089°
Arg perigee
240.0003°
Mean anomaly
120.0251°
Rev number
61,545

§ Raw data

YAOGAN-191 39410U 13065A   26257.97742779  .00000422  00000+0  12302-2 0  99932 39410 100.1235 230.4089 0008664 240.0003 120.0251 13.15587791615459

JSON: /api/v1/satellites/39410 · /tle

For live sub-satellite position, see the globe view (requires WebGL).

§ Visibility from observer

Set your observer location to see the next 7 days of passes ≥ 10°. The values pass through the URL so the page stays shareable.

No JS? Fill the form by hand. The geolocation button needs JavaScript.